Temp_Advection
nan nan nan nan nan nan nan nan nan nan nan nan nan nan nan nan nan nan nan nan nan nan nan nan nan nan nan nan nan nan nan nan nan nan nan nan nan nan nan nan nan nan nan nan nan
nan -1 -0 -0 -0 -0 -0 0 0 0 0 0 0 0 -0 0 -0 -0 -0 0 0 0 -0 -0 -0 -0 -0 -0 -0 -0 -0 -1 -1 -0 -0 -0 -0 -0 -0 0 0 -0 -0 0 nan
nan -1 -1 -1 -1 -0 -0 -0 0 0 0 0 0 0 -0 -0 -0 0 -0 -0 -0 -0 -0 -0 -0 -0 -0 -0 -0 0 -1 -1 -0 0 -0 -1 -1 -1 -1 -0 -0 0 1 1 nan
nan -0 -1 -1 -1 -0 -0 -0 0 0 0 0 0 0 -0 -0 -0 0 -0 -0 0 0 0 -0 -0 -0 -0 -0 0 -0 -1 -0 -0 -0 -0 0 -0 -1 -1 -1 0 0 0 -1 nan
nan -0 -0 -1 -1 -1 -1 -0 0 0 0 0 0 0 0 -0 0 0 0 0 -0 0 -0 -0 -0 -0 -0 -0 0 -0 -0 -0 -0 -0 0 -0 -0 -0 -1 -1 -1 0 0 -0 nan
nan -0 -0 -0 -1 -1 -1 -1 -0 0 1 0 0 0 -0 -0 0 0 -0 0 -0 -0 -0 -0 -0 -0 -0 -1 -0 -0 -0 -0 -0 -0 -0 -0 -0 -0 -1 -0 -0 -1 -0 -0 nan
nan -0 -0 -0 -0 -1 -1 -0 0 1 1 1 0 0 -1 0 0 0 0 0 0 -0 0 0 -0 -0 -0 -0 -0 0 -0 -1 -1 -0 -0 0 0 -1 -1 -1 -1 -1 0 0 nan
nan -0 -0 -1 -1 -1 -0 0 1 1 0 0 0 -0 -0 0 0 -0 0 -0 0 0 0 0 -0 -0 -0 -0 -1 -0 0 -1 -1 -0 0 0 -1 -1 -0 -1 -1 -1 -0 0 nan
nan -0 -0 -1 -1 -1 -0 1 1 0 0 0 0 -0 0 0 -0 -0 0 -0 -0 0 0 -0 -0 -0 0 0 -0 -0 -0 -1 -1 -0 0 0 -1 -1 -1 -1 -0 -1 -0 0 nan
nan -0 -0 -1 -1 -0 1 1 0 0 0 -0 -0 -0 0 -0 -0 0 0 0 0 0 0 0 -0 -0 0 -0 -1 -0 -0 -0 -1 -1 1 1 -1 -1 -1 -0 -0 -0 -0 0 nan
nan 0 -0 -0 -0 1 0 0 -1 -0 -0 -0 -0 -0 -0 -0 -0 -0 0 0 -0 -0 -0 0 0 -1 -1 -1 0 0 -0 -1 -1 0 -0 -1 -1 -1 -0 -0 -0 0 0 1 nan
nan 0 0 -0 -0 -0 0 0 -0 -0 -0 0 0 0 0 0 -0 -0 -0 -0 -0 -0 0 0 -1 -2 -0 0 1 1 -0 -1 -2 -0 0 -1 -2 -1 -0 0 0 0 1 0 nan
nan -0 0 0 -0 0 0 0 0 0 -0 -0 -0 -0 0 -0 -0 -0 -0 -0 -0 0 0 -1 -1 0 0 0 0 1 -0 -0 -1 -1 -0 -1 -0 -1 -0 0 0 -0 0 0 nan
nan -0 -0 -0 0 0 0 0 0 0 -0 -0 -0 0 0 -0 -0 0 -0 -0 0 0 0 -0 -1 0 0 0 0 -1 -0 0 -1 -0 -0 -0 -0 -1 -0 -0 -0 -0 0 0 nan
nan -0 -0 -0 -0 0 0 0 0 0 -0 -0 -0 -0 -0 -0 -0 0 0 0 0 0 -0 -0 0 0 0 0 -0 -0 0 0 -1 0 -0 -0 -0 0 0 0 -0 -0 0 0 nan
nan -0 -0 -0 -0 0 -0 0 0 -0 0 -0 -0 -0 -0 -0 -0 -0 -0 0 -0 -0 -0 -1 -1 -0 -0 -0 0 0 -0 0 -0 -0 -0 0 -0 0 0 0 0 0 0 1 nan
nan 0 0 -0 -0 -0 0 0 -0 -0 0 -0 -0 -0 -0 -0 -0 -0 -0 -0 -0 -0 -0 -0 -0 -0 0 0 -0 0 -0 -0 -0 -0 0 -0 -0 0 -0 -0 -0 0 0 0 nan
nan -0 0 -0 -0 0 0 -0 -0 0 0 -0 -0 -0 0 -0 -0 -0 -0 -0 -0 -0 -0 -0 0 0 -0 0 -0 -0 0 -0 -0 -0 -0 -0 -0 0 0 0 0 0 -1 -0 nan
nan 0 -0 -0 -0 0 0 -0 -0 0 0 -0 -0 -0 0 -0 0 -0 -0 -0 0 -0 -0 -0 -0 -0 -0 -0 -0 -0 -0 0 -0 0 -0 -0 0 -0 -0 0 -1 -1 -2 -1 nan
nan -0 0 -0 -0 0 0 0 0 0 0 -0 -0 0 -0 -0 -0 -0 -0 -0 -0 -0 -0 -0 0 -0 -0 -0 0 -0 -0 0 -0 0 0 0 -1 -0 0 -0 -1 -1 -1 -1 nan
nan -0 -0 -0 -0 0 -0 -0 -0 0 0 -0 -0 0 -0 -0 -0 -0 -0 -0 -0 -0 -1 -0 -0 -0 -0 -0 0 0 0 0 -0 0 0 -0 -0 0 -0 -1 -1 -1 -1 -0 nan
nan -0 -0 -0 0 0 0 0 -0 0 0 0 0 0 0 -0 -0 -0 -0 0 0 -0 -0 -0 0 0 0 -0 0 0 0 0 0 0 0 -1 -0 0 -1 -1 -0 -1 -1 -0 nan
nan 0 0 0 0 0 -0 -0 0 -0 0 0 0 0 -0 -0 -0 0 -0 0 0 0 -0 -0 -0 -0 -0 0 0 0 0 0 0 -0 -0 -0 -0 -0 -0 -1 -1 -1 -1 -0 nan
nan -0 0 0 0 -0 -0 0 0 0 0 -0 0 0 -0 0 -0 -0 -0 0 0 -0 0 -0 -0 -0 -0 -0 -0 -0 -0 -0 -0 -0 0 -1 -1 0 -0 -0 -0 -0 -0 -1 nan
nan -0 -0 -0 -0 0 -0 -0 1 0 0 0 0 0 0 0 -0 -0 0 0 0 0 0 0 -0 0 0 0 0 -0 -0 -0 -0 0 -0 0 -0 -0 -0 -0 -0 -0 -0 -0 nan
nan -0 -0 0 0 -0 0 0 -0 -0 -0 0 0 0 -0 -0 -0 0 0 -0 -0 0 0 -0 -0 0 -0 0 -0 0 -0 -0 -0 -0 -0 -0 0 0 -0 -0 -0 -0 -0 -0 nan
nan nan nan nan nan nan nan nan nan nan nan nan nan nan nan nan nan nan nan nan nan nan nan nan nan nan nan nan nan nan nan nan nan nan nan nan nan nan nan nan nan nan nan nan nan
Wind_Speed
23 18 22 19 16 15 25 18 19 17 17 15 14 11 13 11 8 8 10 8 4 6 5 5 5 5 6 12 14 10 10 16 20 20 15 19 20 23 24 26 26 27 30 20 3
22 20 19 19 15 19 19 25 19 16 17 14 13 12 11 7 6 7 8 8 10 4 2 5 7 6 10 10 11 15 12 21 17 16 15 19 16 21 25 24 24 23 26 19 7
16 17 19 23 23 16 16 17 23 20 17 16 12 10 8 3 6 3 3 5 9 4 4 4 5 6 10 11 15 15 19 18 18 17 14 15 18 20 20 21 20 21 28 29 19
18 19 23 27 28 24 20 13 27 19 18 14 10 7 5 1 2 5 4 5 6 3 2 1 5 7 7 10 14 19 21 20 22 26 20 14 19 24 26 22 22 8 10 16 28
19 19 20 20 15 24 24 18 26 17 18 13 10 5 0 4 5 6 3 5 5 2 2 4 7 9 11 8 11 15 16 23 23 22 23 23 22 24 28 25 23 23 16 16 19
21 21 21 21 23 12 16 19 28 23 18 11 10 5 5 7 7 5 5 7 5 4 4 3 5 6 11 14 14 14 17 18 20 21 23 22 24 26 32 26 27 26 24 20 23
20 23 24 22 22 19 9 17 27 24 13 11 9 6 8 5 6 5 4 6 6 6 5 4 5 6 7 10 12 16 17 19 23 25 23 20 23 27 33 27 28 28 24 21 18
23 22 24 25 18 18 12 23 23 20 10 11 5 5 5 9 7 8 6 6 6 7 4 5 7 11 13 12 16 16 18 18 17 18 25 23 22 20 26 30 31 30 26 22 18
22 22 24 26 21 17 11 26 21 12 12 8 4 6 2 4 7 7 7 6 7 6 7 6 6 11 7 7 8 9 14 18 18 16 16 17 21 22 28 24 28 30 26 22 17
22 24 23 24 27 8 27 21 13 11 10 9 4 6 6 5 9 9 8 8 6 6 6 5 5 7 8 8 10 12 11 15 17 14 14 16 19 23 26 29 22 27 24 18 17
25 23 21 19 12 10 23 17 13 5 9 5 6 0 11 9 9 6 7 9 7 8 7 1 5 12 13 16 17 16 18 22 21 18 17 18 21 19 21 10 18 21 14 12 13
23 21 19 19 17 10 24 10 9 6 4 12 7 5 10 7 6 8 9 8 9 10 3 4 14 17 16 15 16 18 21 24 23 22 15 21 22 18 17 10 11 10 13 13 8
19 16 17 17 19 21 11 4 6 9 3 8 11 7 6 8 4 12 13 7 6 9 9 13 11 12 12 14 16 19 20 22 20 16 16 15 18 17 16 12 13 13 9 9 4
13 10 14 12 2 10 12 4 8 10 3 7 8 6 6 6 4 6 12 4 4 8 10 12 15 14 13 15 14 18 18 24 20 10 7 17 8 16 13 15 15 18 14 13 6
11 10 13 10 8 4 2 10 11 2 5 8 7 9 9 7 8 5 6 4 7 5 3 5 7 9 15 8 4 9 5 9 14 13 9 18 3 15 17 14 13 14 15 13 6
10 11 13 7 8 6 3 10 10 2 3 5 6 9 8 8 4 6 3 3 1 4 5 12 22 13 6 15 15 5 4 2 7 6 5 3 1 9 6 2 2 5 12 14 12
11 14 12 9 3 7 6 14 2 4 7 7 7 8 10 7 6 6 4 4 4 4 3 3 6 5 7 8 9 6 3 4 5 4 3 2 2 9 9 5 2 2 20 17 16
14 12 6 6 3 12 17 1 5 4 4 3 8 12 4 7 3 4 3 4 9 7 4 4 1 6 8 6 8 12 8 5 2 2 3 4 3 4 9 5 10 4 29 22 24
16 13 8 8 5 20 8 4 4 2 5 8 12 7 3 3 1 6 1 3 2 6 3 4 2 7 7 9 7 7 4 9 3 1 2 2 5 15 16 14 21 17 25 21 23
17 17 4 5 15 18 1 4 2 3 6 13 4 1 6 7 4 4 3 1 1 1 1 2 4 7 5 6 4 4 7 4 2 3 5 6 12 8 12 11 15 14 17 18 17
24 12 11 13 21 6 2 4 2 1 2 4 4 5 5 5 3 2 2 4 6 4 9 6 6 4 4 4 5 1 7 4 3 2 3 4 6 9 10 11 13 14 18 17 21
20 5 15 15 4 2 3 3 7 7 3 5 5 4 5 2 3 3 2 2 4 2 3 1 5 2 1 2 3 3 9 9 5 7 4 10 6 7 11 12 13 17 17 16 15
9 9 16 3 3 1 3 5 4 3 4 2 3 3 1 2 2 3 0 3 6 2 4 4 3 4 1 5 4 5 11 11 1 3 9 3 6 8 10 11 14 15 15 14 14
7 3 4 3 1 3 5 3 1 4 8 6 5 5 2 5 2 5 3 1 4 5 3 4 3 5 6 3 4 7 12 12 8 5 10 9 14 11 11 10 12 13 12 13 12
4 3 2 4 4 5 5 2 8 5 5 3 3 3 2 3 6 4 2 1 1 5 2 4 3 3 4 4 3 5 7 10 11 9 6 6 8 9 9 10 12 11 10 10 9
4 5 5 10 5 5 3 3 6 5 6 7 8 5 3 7 6 3 1 2 3 3 4 3 2 4 2 5 3 4 7 5 8 8 7 7 7 3 7 8 6 7 6 6 5
12 12 4 3 4 3 3 3 5 3 6 6 5 6 8 6 8 8 8 6 5 5 4 3 2 2 2 4 3 3 8 7 4 5 6 2 6 3 4 4 4 3 3 5 4
Wind_Direction
276 294 287 285 289 292 270 286 282 292 286 304 290 297 302 290 292 314 295 257 222 239 229 252 244 229 221 232 230 241 251 246 248 253 254 258 261 251 245 254 255 254 260 246 237
277 279 281 280 286 272 276 265 282 264 278 296 285 294 307 292 288 291 264 274 211 210 234 254 245 228 227 228 229 228 238 246 260 266 271 277 267 262 250 238 242 256 257 244 230
308 296 284 275 270 278 286 284 256 263 264 284 278 288 303 292 291 140 33 32 165 199 204 250 252 239 238 230 224 238 244 266 266 263 292 295 284 276 265 251 247 248 242 235 238
329 306 297 280 271 268 269 269 256 257 258 274 268 270 305 230 318 159 87 83 139 157 139 241 255 243 245 231 231 253 256 266 266 271 278 256 269 273 269 270 254 257 291 279 255
325 317 322 319 311 262 259 256 231 255 246 258 251 256 145 222 228 207 212 170 140 150 228 260 266 275 261 269 262 257 266 268 271 269 267 270 261 265 265 261 270 269 269 284 251
327 326 316 316 317 281 275 249 230 244 238 252 236 225 198 232 183 200 186 183 193 220 242 249 281 277 283 273 268 279 295 286 279 269 263 259 259 257 256 253 259 267 267 264 253
318 326 320 318 318 294 269 232 222 229 219 228 213 178 221 197 177 185 193 179 191 215 235 265 280 273 308 279 275 278 282 273 258 251 250 251 254 248 254 255 256 248 249 249 262
322 314 321 321 312 277 264 202 222 215 204 194 192 188 243 203 205 223 188 165 183 214 237 276 281 270 269 275 285 270 263 271 265 249 238 232 258 260 245 242 243 246 248 249 269
318 316 318 321 316 285 229 193 202 173 170 178 183 210 231 210 199 202 175 165 189 226 260 272 271 262 277 257 272 255 268 270 275 248 264 239 249 261 251 247 233 235 242 246 261
315 319 321 329 335 233 172 189 140 154 143 132 198 205 205 183 161 151 169 181 177 226 260 257 259 253 240 215 248 261 245 264 268 279 236 246 244 254 273 222 242 229 236 236 251
310 314 316 325 349 170 171 163 123 120 160 184 203 156 140 138 142 155 158 168 190 224 239 271 259 238 242 244 245 271 274 274 271 276 291 265 240 253 244 269 242 225 239 234 251
305 304 307 319 312 226 206 164 164 141 191 211 170 151 139 167 155 169 173 179 202 234 220 237 251 256 260 264 257 248 257 265 279 275 245 259 250 246 230 220 234 220 228 232 239
305 302 305 322 333 186 194 207 209 170 218 162 194 186 186 185 196 184 177 206 226 252 236 241 252 313 273 274 271 257 251 261 258 281 270 237 238 226 216 214 219 215 222 209 203
299 299 303 325 171 193 212 223 175 138 187 146 186 207 181 182 205 174 195 215 212 262 251 257 254 262 276 267 262 261 251 248 245 238 234 203 205 209 207 218 216 216 212 201 189
292 291 290 309 297 192 151 170 152 147 190 136 146 152 165 185 138 169 180 212 258 266 259 264 292 303 302 263 221 251 282 216 215 217 276 199 180 185 203 220 206 209 191 192 174
289 268 277 299 274 254 312 157 138 222 156 133 132 165 155 194 141 115 132 206 346 270 242 262 276 290 249 302 299 275 113 103 199 252 228 150 332 151 165 111 117 156 188 176 142
295 285 233 249 230 212 204 151 202 274 181 145 156 164 184 160 166 172 174 173 242 251 226 290 232 243 250 311 301 285 268 170 208 193 101 96 227 57 17 332 255 202 151 143 129
275 269 220 214 231 177 164 226 254 90 72 144 138 159 154 140 169 186 199 207 226 257 295 329 105 359 5 336 320 307 331 359 341 97 104 289 56 28 45 95 132 142 132 121 121
232 212 200 218 213 167 152 239 35 54 130 137 141 150 102 172 229 212 150 324 86 192 305 333 292 335 33 338 345 349 359 315 326 169 193 98 133 86 43 70 83 82 98 106 108
130 125 121 193 168 160 348 57 17 351 132 168 120 354 144 173 203 205 10 71 297 272 199 297 300 11 319 343 322 217 310 332 264 359 61 74 62 36 53 64 90 88 89 98 103
97 87 109 135 162 126 329 40 3 83 61 353 78 124 113 147 239 91 94 217 207 244 207 275 237 174 184 221 332 308 5 284 271 3 355 96 65 1 53 90 88 82 80 81 93
83 72 129 143 91 323 356 1 319 18 52 63 68 62 118 150 85 88 100 74 19 221 246 287 302 317 300 132 259 303 356 360 346 25 9 86 62 49 71 86 84 91 93 87 85
69 79 140 128 137 335 258 47 7 349 30 74 81 27 58 128 118 96 104 16 12 347 336 358 320 305 284 165 175 14 5 354 0 324 32 42 110 105 99 98 99 105 102 100 95
102 99 61 352 153 293 48 353 70 11 57 62 98 104 131 80 76 142 121 18 342 346 338 276 23 16 23 39 319 3 14 21 32 24 60 71 130 140 136 132 127 117 112 106 99
68 104 163 136 175 83 71 284 82 77 41 26 82 35 345 103 94 90 58 306 4 5 349 340 63 55 55 28 37 27 25 32 47 20 65 116 131 150 152 145 136 130 123 116 102
114 139 118 127 132 114 66 71 74 76 353 72 81 53 54 79 19 116 78 345 1 351 6 0 87 0 5 35 44 66 36 38 39 31 68 86 103 121 120 113 140 131 128 120 95
98 119 131 139 122 141 83 28 53 339 60 57 24 87 75 50 44 61 67 65 35 332 355 359 109 345 22 359 314 191 20 16 19 30 340 11 38 144 171 171 169 145 119 93 50
Height
1498 1498 1495 1495 1494 1492 1492 1492 1493 1490 1490 1490 1489 1488 1485 1485 1485 1486 1488 1489 1489 1485 1489 1491 1491 1491 1490 1491 1491 1491 1485 1474 1471 1470 1465 1465 1462 1462 1465 1466 1468 1469 1467 1471 1469
1493 1492 1491 1489 1487 1486 1488 1487 1489 1486 1487 1487 1487 1485 1483 1484 1484 1485 1485 1483 1486 1486 1489 1492 1490 1489 1488 1488 1488 1487 1478 1472 1470 1467 1465 1463 1463 1462 1463 1462 1466 1470 1468 1469 1467
1488 1485 1483 1483 1483 1482 1481 1481 1482 1483 1484 1484 1483 1483 1483 1482 1485 1482 1480 1481 1483 1487 1488 1490 1491 1489 1486 1485 1484 1482 1475 1472 1469 1469 1471 1472 1470 1469 1461 1460 1461 1465 1466 1467 1468
1487 1484 1481 1477 1476 1476 1477 1477 1477 1478 1480 1481 1481 1480 1480 1483 1481 1481 1480 1480 1483 1488 1488 1489 1491 1488 1486 1481 1482 1479 1476 1475 1473 1473 1472 1475 1476 1471 1465 1461 1461 1463 1464 1464 1464
1483 1481 1477 1474 1470 1470 1470 1472 1471 1472 1474 1476 1478 1477 1480 1483 1481 1478 1481 1480 1483 1487 1488 1489 1489 1487 1484 1480 1480 1477 1476 1475 1474 1473 1473 1475 1473 1472 1466 1466 1463 1462 1464 1464 1463
1481 1478 1473 1470 1466 1464 1463 1466 1466 1468 1470 1472 1474 1476 1480 1481 1476 1477 1477 1479 1483 1487 1488 1488 1488 1488 1486 1483 1481 1475 1473 1473 1473 1472 1472 1473 1470 1471 1462 1467 1464 1462 1460 1463 1463
1478 1473 1469 1465 1462 1459 1457 1459 1461 1464 1466 1469 1472 1473 1478 1477 1475 1475 1475 1478 1481 1486 1487 1488 1489 1489 1485 1481 1479 1477 1475 1474 1469 1468 1467 1469 1463 1460 1461 1462 1459 1457 1457 1460 1460
1473 1470 1465 1460 1457 1454 1454 1454 1457 1461 1463 1468 1472 1475 1475 1471 1474 1474 1475 1478 1481 1485 1485 1487 1488 1489 1486 1483 1478 1475 1472 1467 1457 1456 1457 1463 1453 1450 1452 1454 1452 1452 1453 1454 1455
1470 1466 1462 1457 1452 1450 1450 1450 1454 1459 1462 1467 1472 1476 1471 1469 1471 1474 1476 1478 1481 1484 1485 1487 1488 1485 1484 1483 1481 1473 1467 1457 1451 1452 1452 1451 1451 1444 1446 1442 1443 1445 1447 1449 1452
1467 1462 1459 1454 1449 1445 1445 1450 1453 1459 1463 1467 1471 1477 1471 1469 1470 1472 1474 1478 1480 1483 1486 1485 1485 1481 1477 1481 1469 1458 1459 1454 1451 1446 1444 1446 1445 1441 1437 1438 1435 1438 1442 1444 1449
1463 1459 1457 1454 1449 1453 1447 1451 1459 1464 1462 1464 1466 1466 1466 1469 1470 1473 1474 1477 1478 1482 1481 1484 1486 1476 1469 1466 1466 1465 1462 1455 1448 1446 1451 1442 1437 1435 1435 1436 1431 1433 1435 1439 1446
1459 1456 1453 1451 1448 1449 1448 1449 1451 1456 1459 1462 1465 1467 1466 1469 1470 1472 1475 1476 1476 1476 1478 1485 1477 1467 1462 1461 1461 1463 1462 1450 1444 1442 1445 1445 1431 1431 1429 1434 1434 1435 1441 1443 1443
1454 1452 1450 1448 1444 1444 1446 1447 1451 1454 1456 1461 1464 1466 1466 1468 1468 1468 1472 1473 1474 1473 1476 1477 1460 1461 1460 1460 1460 1455 1456 1451 1453 1442 1436 1433 1429 1426 1422 1430 1435 1435 1438 1440 1442
1451 1450 1448 1447 1451 1446 1448 1449 1451 1454 1456 1459 1463 1463 1465 1466 1467 1468 1471 1474 1472 1471 1471 1470 1464 1459 1459 1458 1456 1448 1441 1445 1446 1445 1431 1424 1426 1420 1419 1423 1427 1431 1434 1437 1438
1449 1449 1447 1447 1447 1448 1448 1450 1453 1456 1441 1458 1462 1462 1463 1464 1466 1469 1470 1472 1471 1472 1473 1459 1455 1456 1455 1451 1448 1436 1436 1436 1437 1432 1433 1419 1419 1410 1415 1418 1419 1424 1428 1433 1436
1447 1446 1445 1446 1446 1449 1450 1452 1456 1457 1436 1455 1458 1460 1462 1463 1465 1468 1471 1474 1474 1473 1470 1465 1458 1458 1449 1442 1434 1430 1438 1440 1438 1440 1426 1416 1418 1416 1415 1417 1417 1419 1425 1432 1433
1441 1441 1442 1445 1448 1448 1452 1455 1454 1437 1447 1454 1453 1456 1454 1459 1461 1466 1470 1472 1470 1467 1460 1449 1446 1446 1444 1443 1433 1428 1426 1422 1422 1412 1410 1411 1417 1418 1417 1419 1419 1419 1424 1432 1431
1435 1438 1441 1446 1447 1450 1454 1459 1440 1441 1444 1446 1448 1453 1451 1454 1458 1465 1466 1467 1468 1466 1454 1450 1442 1443 1441 1439 1435 1427 1425 1420 1412 1409 1418 1419 1415 1429 1424 1420 1421 1421 1427 1434 1435
1427 1435 1442 1446 1449 1452 1458 1447 1446 1446 1442 1444 1450 1450 1453 1455 1460 1459 1460 1460 1459 1461 1460 1452 1447 1444 1444 1442 1441 1429 1428 1429 1423 1414 1412 1419 1421 1418 1428 1420 1425 1426 1432 1439 1442
1424 1437 1445 1448 1451 1456 1459 1449 1448 1446 1443 1443 1439 1441 1448 1452 1459 1456 1457 1465 1463 1462 1462 1456 1449 1449 1451 1445 1440 1439 1433 1427 1415 1414 1412 1407 1415 1429 1434 1435 1435 1440 1442 1444 1447
1433 1441 1452 1452 1456 1460 1455 1453 1454 1450 1447 1443 1444 1447 1447 1452 1452 1451 1458 1462 1462 1457 1457 1450 1446 1446 1452 1445 1436 1432 1423 1419 1418 1412 1414 1405 1431 1433 1434 1440 1442 1447 1449 1449 1450
1437 1445 1457 1459 1463 1462 1457 1459 1456 1452 1449 1449 1449 1448 1446 1450 1451 1450 1456 1453 1455 1455 1447 1444 1437 1435 1436 1434 1435 1435 1429 1420 1417 1415 1409 1408 1442 1440 1441 1449 1450 1453 1454 1455 1455
1445 1454 1460 1461 1458 1461 1457 1458 1459 1455 1451 1450 1451 1453 1454 1451 1454 1452 1452 1453 1453 1452 1449 1445 1437 1437 1430 1434 1435 1429 1426 1421 1421 1415 1415 1412 1440 1444 1447 1450 1453 1453 1457 1459 1459
1450 1459 1465 1463 1462 1457 1457 1462 1459 1456 1455 1454 1455 1454 1451 1451 1450 1453 1451 1452 1452 1451 1452 1449 1443 1447 1445 1450 1446 1439 1433 1426 1423 1427 1423 1424 1440 1444 1448 1451 1455 1457 1458 1461 1461
1451 1459 1461 1462 1462 1458 1461 1463 1454 1455 1456 1456 1455 1454 1452 1452 1450 1452 1452 1450 1451 1451 1449 1446 1452 1456 1448 1446 1444 1442 1439 1434 1435 1427 1428 1431 1432 1438 1443 1449 1453 1455 1458 1459 1461
1454 1457 1460 1461 1462 1459 1462 1456 1456 1460 1460 1457 1457 1455 1452 1455 1452 1452 1452 1452 1452 1448 1448 1449 1453 1453 1450 1445 1443 1444 1441 1437 1438 1435 1433 1433 1439 1440 1444 1450 1454 1457 1460 1461 1462
1455 1457 1457 1462 1461 1458 1465 1464 1463 1463 1466 1465 1463 1459 1460 1464 1462 1460 1458 1458 1457 1453 1450 1450 1453 1455 1449 1447 1445 1443 1448 1445 1443 1443 1444 1436 1445 1446 1450 1452 1456 1458 1461 1463 1464